EZY101P EGNV-EGGP

Flight info

Callsign EZY101P
Flight time N/A
Altitude 16000
Route GASKO P18 POL
Aircraft A319/M-SDE3FGHIRWY/LB1

Departure

Time 2026-05-06 14:43
Airport Teesside International Airport (EGNV)

Arrival

Time N/A
Airport Liverpool John Lennon Airport (EGGP)
Time Latitude Longitude Altitude Speed Heading
2026-05-06 14:12 54.51129 -1.43311 129 ft 0 kts 329°
2026-05-06 14:32 54.51128 -1.43310 129 ft 1 kts 329°
2026-05-06 14:32 54.51115 -1.43297 129 ft 2 kts 329°
2026-05-06 14:32 54.51102 -1.43284 129 ft 2 kts 329°
2026-05-06 14:33 54.51090 -1.43270 129 ft 2 kts 329°
2026-05-06 14:33 54.51077 -1.43257 129 ft 2 kts 329°
2026-05-06 14:33 54.51058 -1.43247 129 ft 2 kts 12°
2026-05-06 14:33 54.51049 -1.43253 129 ft 2 kts 37°
2026-05-06 14:34 54.51043 -1.43263 129 ft 1 kts 58°
2026-05-06 14:34 54.51040 -1.43273 129 ft 0 kts 60°
2026-05-06 14:35 54.51042 -1.43267 129 ft 2 kts 60°
2026-05-06 14:36 54.51059 -1.43213 129 ft 5 kts 68°
2026-05-06 14:36 54.51065 -1.43145 129 ft 6 kts 88°
2026-05-06 14:36 54.51065 -1.43059 129 ft 8 kts 94°
2026-05-06 14:36 54.51061 -1.42961 129 ft 0 kts 94°
2026-05-06 14:38 54.51061 -1.42958 129 ft 1 kts 94°
2026-05-06 14:38 54.51059 -1.42906 129 ft 7 kts 94°
2026-05-06 14:39 54.51039 -1.42783 129 ft 9 kts 155°
2026-05-06 14:39 54.50994 -1.42803 129 ft 11 kts 221°
2026-05-06 14:39 54.50936 -1.42911 129 ft 14 kts 227°
2026-05-06 14:39 54.50865 -1.43042 129 ft 15 kts 227°
2026-05-06 14:40 54.50789 -1.43184 129 ft 16 kts 227°
2026-05-06 14:40 54.50708 -1.43336 129 ft 17 kts 227°
2026-05-06 14:40 54.50622 -1.43497 129 ft 18 kts 228°
2026-05-06 14:40 54.50533 -1.43662 129 ft 19 kts 228°
2026-05-06 14:41 54.50441 -1.43835 129 ft 19 kts 227°
2026-05-06 14:41 54.50343 -1.44012 129 ft 20 kts 229°
2026-05-06 14:41 54.50274 -1.44151 129 ft 8 kts 229°
2026-05-06 14:41 54.50249 -1.44221 129 ft 2 kts 219°
2026-05-06 14:42 54.50246 -1.44210 129 ft 2 kts 70°
2026-05-06 14:42 54.50260 -1.44173 129 ft 5 kts 52°
2026-05-06 14:42 54.50397 -1.43917 129 ft 71 kts 47°
2026-05-06 14:42 54.50933 -1.42925 228 ft 143 kts 47°
2026-05-06 14:43 54.51624 -1.41650 1043 ft 151 kts 49°
2026-05-06 14:43 54.52396 -1.40528 2091 ft 151 kts 23°
2026-05-06 14:43 54.53448 -1.40499 2788 ft 167 kts 341°
2026-05-06 14:43 54.54313 -1.41940 3369 ft 195 kts 299°
2026-05-06 14:44 54.54407 -1.44409 4012 ft 229 kts 255°
2026-05-06 14:44 54.53482 -1.46790 4783 ft 255 kts 230°
2026-05-06 14:44 54.52124 -1.48903 5553 ft 275 kts 225°
2026-05-06 14:45 54.49221 -1.53161 7315 ft 277 kts 226°
2026-05-06 14:45 54.47827 -1.55350 7867 ft 270 kts 220°
2026-05-06 14:45 54.46463 -1.57537 8066 ft 264 kts 219°
2026-05-06 14:45 54.45124 -1.59638 8069 ft 260 kts 219°
2026-05-06 14:46 54.43795 -1.61732 8069 ft 259 kts 220°
2026-05-06 14:46 54.42465 -1.63841 8067 ft 260 kts 219°
2026-05-06 14:46 54.41120 -1.65973 8246 ft 268 kts 219°
2026-05-06 14:46 54.39743 -1.68154 9228 ft 275 kts 220°
2026-05-06 14:47 54.38380 -1.70314 10737 ft 266 kts 222°
2026-05-06 14:47 54.37037 -1.72438 11767 ft 273 kts 224°
2026-05-06 14:47 54.35598 -1.74732 12422 ft 292 kts 224°
2026-05-06 14:47 54.34057 -1.77201 13004 ft 311 kts 224°
2026-05-06 14:48 54.32412 -1.79829 13514 ft 330 kts 224°
2026-05-06 14:48 54.30692 -1.82567 13927 ft 348 kts 224°
2026-05-06 14:48 54.28887 -1.85429 14448 ft 361 kts 224°
2026-05-06 14:48 54.27047 -1.88339 15225 ft 363 kts 224°
2026-05-06 14:49 54.25184 -1.91263 15772 ft 365 kts 223°
2026-05-06 14:49 54.23134 -1.93785 16031 ft 367 kts 213°
2026-05-06 14:49 54.20811 -1.95671 16049 ft 371 kts 204°
2026-05-06 14:49 54.18326 -1.96831 16053 ft 375 kts 196°
2026-05-06 14:50 54.15740 -1.97680 16053 ft 375 kts 195°
2026-05-06 14:50 54.13205 -1.98462 16053 ft 376 kts 195°
2026-05-06 14:50 54.10637 -1.99240 16053 ft 375 kts 195°
2026-05-06 14:50 54.08059 -2.00021 16053 ft 375 kts 195°
2026-05-06 14:51 54.05497 -2.00792 16053 ft 375 kts 195°
2026-05-06 14:51 54.02931 -2.01565 16053 ft 375 kts 195°
2026-05-06 14:51 54.00349 -2.02348 16053 ft 375 kts 195°
2026-05-06 14:51 53.97782 -2.03138 16053 ft 375 kts 195°
2026-05-06 14:52 53.95232 -2.03925 16053 ft 375 kts 195°
2026-05-06 14:52 53.92657 -2.04718 16053 ft 375 kts 195°
2026-05-06 14:52 53.90100 -2.05505 16053 ft 375 kts 195°
2026-05-06 14:52 53.87602 -2.06273 16054 ft 375 kts 195°
2026-05-06 14:53 53.85233 -2.06999 16053 ft 375 kts 195°
2026-05-06 14:53 53.82628 -2.07797 16053 ft 376 kts 195°
2026-05-06 14:53 53.80044 -2.08587 16053 ft 376 kts 195°
2026-05-06 14:53 53.77474 -2.09479 16047 ft 372 kts 201°
2026-05-06 14:54 53.75158 -2.11338 16048 ft 365 kts 217°
2026-05-06 14:54 53.73276 -2.14245 16050 ft 362 kts 232°
2026-05-06 14:54 53.71901 -2.17800 15822 ft 353 kts 239°
2026-05-06 14:54 53.70690 -2.21369 14894 ft 355 kts 240°
2026-05-06 14:55 53.69489 -2.24954 14170 ft 349 kts 240°
2026-05-06 14:55 53.68290 -2.28534 13621 ft 339 kts 240°
2026-05-06 14:55 53.67133 -2.31980 13066 ft 331 kts 240°
2026-05-06 14:55 53.66019 -2.35287 12490 ft 325 kts 240°
2026-05-06 14:56 53.64907 -2.38583 11919 ft 319 kts 240°
2026-05-06 14:56 53.63821 -2.41807 11368 ft 313 kts 239°
2026-05-06 14:56 53.62748 -2.44987 10905 ft 305 kts 238°
2026-05-06 14:56 53.61712 -2.48021 10594 ft 294 kts 241°